Weather History for Wise, VA

Change the Weather History Date:

Monday, September 16, 2013

  Actual Average Record
Temperature  
Mean Temperature 62 °F -  
Max Temperature 68 °F 72 °F 84 °F (1998)
Min Temperature 55 °F 53 °F 39 °F (2000)
Degree Days  
Heating Degree Days 4    
Growing Degree Days 12 (Base 50)    
Moisture  
Dew Point 59 °F    
Average Humidity 90    
Maximum Humidity 100    
Minimum Humidity 73    
Precipitation  
Precipitation 0.00 in - - ()
Sea Level Pressure  
Sea Level Pressure 30.24 in    
Wind  
Wind Speed 4 mph (NNW)    
Max Wind Speed 9 mph    
Max Gust Speed -    
Visibility 10 miles    
Events Rain    
Averages and records for this station are not official NWS values.
T = Trace of Precipitation, MM = Missing Value Source: NWS Daily Summary

Daily Weather History Graph

Daily Weather History Graph

Search for Another Location

Airport:

Trip Planner

Search our weather history database for the weather conditions in past years. The results will help you decide how hot, cold, wet, or windy it might be!

Date:

Astronomy

Sep. 16, 2013 Rise Set
Actual Time 7:13 AM EDT 7:35 PM EDT
Civil Twilight 6:47 AM EDT 8:01 PM EDT
Nautical Twilight 6:16 AM EDT 8:32 PM EDT
Astronomical Twilight 5:45 AM EDT 9:03 PM EDT
Moon 5:41 PM EDT (9/16) 4:01 AM EDT (9/16)
Length of Visible Light 13h 14m
Length of Day
12h 22m
Waxing Gibbous, 90% of the Moon is Illuminated
Sep 16
Waxing Gibbous
Sep 19
Full
Sep 26
Last Quarter
Oct 4
New
Oct 11
First Quarter

Hourly Weather History & Observations

Time (EDT) Temp. Dew Point Humidity Pressure Visibility Wind Dir Wind Speed Gust Speed Precip Events Conditions
12:15 AM 59.0 °F 53.6 °F 82% 30.20 in 10.0 mi South 3.5 mph - N/A   Clear
12:35 AM 59.0 °F 55.4 °F 88% 30.20 in 10.0 mi Calm Calm - N/A   Clear
12:55 AM 59.0 °F 55.4 °F 88% 30.21 in 10.0 mi Calm Calm - N/A   Clear
1:15 AM 59.0 °F 55.4 °F 88% 30.21 in 10.0 mi Calm Calm - N/A   Clear
1:35 AM 59.0 °F 55.4 °F 88% 30.21 in 10.0 mi SW 3.5 mph - N/A   Clear
1:55 AM 59.0 °F 55.4 °F 88% 30.21 in 10.0 mi Calm Calm - N/A   Clear
2:15 AM 59.0 °F 55.4 °F 88% 30.21 in 10.0 mi SSW 4.6 mph - N/A   Clear
2:35 AM 59.0 °F 59.0 °F 100% 30.21 in 10.0 mi SW 3.5 mph - N/A   Clear
2:55 AM 59.0 °F 57.2 °F 94% 30.21 in 10.0 mi Calm Calm - N/A   Clear
3:15 AM 59.0 °F 55.4 °F 88% 30.21 in 10.0 mi Calm Calm - N/A   Clear
3:35 AM 60.8 °F 57.2 °F 88% 30.21 in 10.0 mi Calm Calm - N/A   Clear
3:55 AM 59.0 °F 57.2 °F 94% 30.21 in 10.0 mi South 4.6 mph - N/A   Clear
4:15 AM 55.4 °F 55.4 °F 100% 30.21 in 10.0 mi Calm Calm - N/A   Clear
4:35 AM 55.4 °F 55.4 °F 100% 30.21 in 10.0 mi SW 4.6 mph - N/A   Clear
4:55 AM 57.2 °F 57.2 °F 100% 30.21 in 10.0 mi SW 4.6 mph - N/A   Scattered Clouds
5:15 AM 59.0 °F 59.0 °F 100% 30.21 in 10.0 mi SW 3.5 mph - N/A   Mostly Cloudy
5:35 AM 57.2 °F 57.2 °F 100% 30.21 in 10.0 mi SSW 4.6 mph - N/A   Scattered Clouds
5:55 AM 59.0 °F 59.0 °F 100% 30.21 in 10.0 mi SW 4.6 mph - N/A   Scattered Clouds
6:15 AM 59.0 °F 59.0 °F 100% 30.21 in 10.0 mi SW 3.5 mph - N/A   Mostly Cloudy
6:35 AM 59.0 °F 59.0 °F 100% 30.22 in 10.0 mi SW 4.6 mph - N/A   Scattered Clouds
6:55 AM 59.0 °F 59.0 °F 100% 30.22 in 10.0 mi SW 5.8 mph - N/A   Scattered Clouds
7:15 AM 59.0 °F 59.0 °F 100% 30.22 in 10.0 mi WSW 4.6 mph - N/A   Mostly Cloudy
7:35 AM 59.0 °F 59.0 °F 100% 30.22 in 10.0 mi WSW 4.6 mph - N/A   Scattered Clouds
7:55 AM 59.0 °F 59.0 °F 100% 30.23 in 10.0 mi SW 4.6 mph - N/A   Scattered Clouds
8:15 AM 62.6 °F 62.6 °F 100% 30.23 in 10.0 mi SW 4.6 mph - N/A   Mostly Cloudy
8:35 AM 62.6 °F 62.6 °F 100% 30.23 in 10.0 mi SW 3.5 mph - N/A   Scattered Clouds
8:55 AM 64.4 °F 64.4 °F 100% 30.23 in 10.0 mi WSW 4.6 mph - N/A   Mostly Cloudy
9:15 AM 64.4 °F 64.4 °F 100% 30.23 in 7.0 mi WSW 3.5 mph - N/A Rain Light Rain
9:35 AM 64.4 °F 62.6 °F 94% 30.24 in 10.0 mi Calm Calm - N/A   Overcast
9:55 AM 64.4 °F 60.8 °F 88% 30.24 in 10.0 mi NNW 3.5 mph - N/A   Overcast
10:15 AM 64.4 °F 60.8 °F 88% 30.25 in 10.0 mi NNW 4.6 mph - N/A   Overcast
10:35 AM 64.4 °F 60.8 °F 88% 30.26 in 10.0 mi NNW 5.8 mph - N/A   Overcast
10:55 AM 64.4 °F 60.8 °F 88% 30.26 in 10.0 mi NW 4.6 mph - N/A   Overcast
11:15 AM 64.4 °F 60.8 °F 88% 30.27 in 10.0 mi NNE 4.6 mph - N/A   Overcast
11:35 AM 64.4 °F 60.8 °F 88% 30.27 in 10.0 mi North 5.8 mph - N/A   Overcast
11:55 AM 64.4 °F 60.8 °F 88% 30.27 in 10.0 mi NNE 5.8 mph - N/A   Overcast
12:15 PM 62.6 °F 60.8 °F 94% 30.27 in 10.0 mi Calm Calm - N/A   Overcast
12:35 PM 64.4 °F 60.8 °F 88% 30.27 in 10.0 mi NNE 3.5 mph - N/A   Overcast
12:55 PM 66.2 °F 60.8 °F 83% 30.26 in 10.0 mi North 4.6 mph - N/A   Overcast
1:15 PM 68.0 °F 60.8 °F 78% 30.27 in 10.0 mi NNE 9.2 mph - N/A   Overcast
1:35 PM 68.0 °F 60.8 °F 78% 30.27 in 10.0 mi North 5.8 mph - N/A   Overcast
1:55 PM 68.0 °F 60.8 °F 78% 30.27 in 10.0 mi North 3.5 mph - N/A   Overcast
2:15 PM 68.0 °F 59.0 °F 73% 30.26 in 10.0 mi Calm Calm - N/A   Overcast
2:35 PM 68.0 °F 59.0 °F 73% 30.25 in 10.0 mi WNW 4.6 mph - N/A   Overcast
2:55 PM 68.0 °F 60.8 °F 78% 30.25 in 10.0 mi NW 3.5 mph - N/A   Overcast
3:15 PM 68.0 °F 59.0 °F 73% 30.25 in 10.0 mi NNW 6.9 mph - N/A   Overcast
3:35 PM 68.0 °F 59.0 °F 73% 30.24 in 10.0 mi NNW 5.8 mph - N/A   Overcast
3:55 PM 68.0 °F 59.0 °F 73% 30.24 in 10.0 mi NW 4.6 mph - N/A   Overcast
4:15 PM 68.0 °F 59.0 °F 73% 30.24 in 10.0 mi North 6.9 mph - N/A   Overcast
4:35 PM 66.2 °F 59.0 °F 78% 30.24 in 10.0 mi North 8.1 mph - N/A   Overcast
4:55 PM 66.2 °F 59.0 °F 78% 30.24 in 10.0 mi North 5.8 mph - N/A   Overcast
5:15 PM 68.0 °F 59.0 °F 73% 30.24 in 10.0 mi NNW 6.9 mph - N/A   Mostly Cloudy
5:35 PM 68.0 °F 59.0 °F 73% 30.24 in 10.0 mi North 5.8 mph - N/A   Mostly Cloudy
5:55 PM 68.0 °F 59.0 °F 73% 30.24 in 10.0 mi NNE 6.9 mph - N/A   Overcast
6:15 PM 64.4 °F 59.0 °F 83% 30.25 in 10.0 mi North 5.8 mph - N/A   Overcast
6:35 PM 64.4 °F 59.0 °F 83% 30.25 in 10.0 mi North 4.6 mph - N/A   Overcast
6:55 PM 64.4 °F 59.0 °F 83% 30.25 in 10.0 mi North 6.9 mph - N/A   Overcast
7:15 PM 62.6 °F 59.0 °F 88% 30.25 in 10.0 mi North 6.9 mph - N/A   Overcast
7:35 PM 62.6 °F 59.0 °F 88% 30.26 in 10.0 mi NNE 5.8 mph - N/A   Overcast
7:55 PM 60.8 °F 60.8 °F 100% 30.26 in 10.0 mi North 5.8 mph - N/A   Mostly Cloudy
8:15 PM 60.8 °F 60.8 °F 100% 30.27 in 10.0 mi NNE 5.8 mph - N/A   Mostly Cloudy
8:35 PM 60.8 °F 60.8 °F 100% 30.27 in 10.0 mi NNE 4.6 mph - N/A   Mostly Cloudy
8:55 PM 59.0 °F 59.0 °F 100% 30.28 in 10.0 mi NNE 4.6 mph - N/A   Scattered Clouds
9:15 PM 59.0 °F 59.0 °F 100% 30.28 in 10.0 mi NE 5.8 mph - N/A   Scattered Clouds
9:35 PM 59.0 °F 59.0 °F 100% 30.28 in 10.0 mi NNE 5.8 mph - N/A   Overcast
9:55 PM 59.0 °F 59.0 °F 100% 30.29 in 7.0 mi NNE 6.9 mph - N/A   Overcast
10:15 PM 59.0 °F 59.0 °F 100% 30.28 in 7.0 mi NE 5.8 mph - N/A   Overcast
10:35 PM 59.0 °F 59.0 °F 100% 30.29 in 7.0 mi NE 5.8 mph - N/A   Overcast
10:55 PM 59.0 °F 59.0 °F 100% 30.30 in 7.0 mi NNE 6.9 mph - N/A   Overcast
11:15 PM 59.0 °F 59.0 °F 100% 30.30 in 7.0 mi NE 4.6 mph - N/A   Overcast
11:35 PM 59.0 °F 59.0 °F 100% 30.30 in 7.0 mi NNE 6.9 mph - N/A   Scattered Clouds
11:55 PM 57.2 °F 57.2 °F 100% 30.31 in 7.0 mi Calm Calm - N/A   Mostly Cloudy